Regional Weather Roundup
Issued by NWS

Home | Current Version | Previous Version | Graphics & Text | Print | Product List | Glossary On
Versions: 1 2 3 4 5 6 7 8 9 10 11 12 13 14 15 16 17 18 19 20 21 22 23 24 25 26 27 28 29 30 31 32 33 34 35 36 37 38 39 40 41 42 43 44 45 46 47 48 49 50
000
ASUS43 KLOT 181300
RWRIL

ILLINOIS REGIONAL WEATHER ROUNDUP
NATIONAL WEATHER SERVICE CHICAGO/ROMEOVILLE IL
700 AM CST THU DEC 18 2014

NOTE: "FAIR" INDICATES FEW OR NO CLOUDS BELOW 12,000 FEET WITH NO
SIGNIFICANT WEATHER AND/OR OBSTRUCTIONS TO VISIBILITY.

* THESE STATIONS ARE NOT UNDER NWS QUALITY CONTROL. THEY ALSO MAY NOT
  REPORT WEATHER SUCH AS PRECIPITATION OR FOG.

ILZ001-002-007-009-015-016-024-181400-
NORTHWEST ILLINOIS

CITY           SKY/WX    TMP DP  RH WIND       PRES   REMARKS
MOLINE         MOCLDY    21  17  84 CALM      30.31R
$$

ILZ003-004-008-010-011-017-018-181400-
NORTH CENTRAL ILLINOIS

CITY           SKY/WX    TMP DP  RH WIND       PRES   REMARKS
ROCKFORD       NOT AVBL
$$

ILZ005-006-012>014-019>023-181400-
NORTHEAST ILLINOIS

CITY           SKY/WX    TMP DP  RH WIND       PRES   REMARKS
CHICAGO-OHARE  PTCLDY    19  13  77 W3        30.27S
CHICAGO-MIDWAY NOT AVBL
AURORA         CLOUDY    23  15  71 CALM      30.29R
WAUKEGAN       PTCLDY    17  14  88 CALM      30.26R
DUPAGE AIRPORT CLOUDY    21  14  74 W3        30.27R
WHEELING       CLEAR     19  13  77 W3        30.29S
NORTHERLY ISL    N/A     24  17  74 W3          N/A
$$

LMZ740>746-181400-
SOUTHERN LAKE MICHIGAN

STATION/POSITION SKY/WX   TEMP    WIND        PRES    VSBY  WAVE
                          AIR SEA DIR/SP/G                  HT/PER
                          (F)     (DEG/KT/KT) (MB)    (MI)  (FT/S)
WAUKEGAN HARBOR            20     280/  1/  7   N/A
HARRISON CRIB              23     290/  9/ 11   N/A
BURNHAM HARBOR             24     290/  5/  8   N/A
CALUMET HARBOR             25     200/  2/  3 1024.0S
$$

ILZ025>027-034>036-040-047-049-050-058-095>099-181400-
WEST-CENTRAL ILLINOIS

CITY           SKY/WX    TMP DP  RH WIND       PRES   REMARKS
QUINCY         CLOUDY    26  20  77 NE3       30.29R
$$

ILZ028>032-037-038-041>044-048-051>054-059>061-181400-
CENTRAL ILLINOIS

CITY           SKY/WX    TMP DP  RH WIND       PRES   REMARKS
PEORIA         NOT AVBL
SPRINGFIELD    CLOUDY    26  22  84 CALM      30.31R
TAYLORVILLE    NOT AVBL
$$

ILZ033-039-045-046-055>057-062-063-181400-
EAST-CENTRAL ILLINOIS

CITY           SKY/WX    TMP DP  RH WIND       PRES   REMARKS
MATTOON        CLOUDY    25  18  74 E3        30.28S
$$

ILZ079-100>102-181400-
SOUTHWEST ILLINOIS

CITY           SKY/WX    TMP DP  RH WIND       PRES   REMARKS
ALTON          CLOUDY    28  23  80 NE7       30.30R WCI  21
BELLEVILLE     MIX PCPN  29  27  92 NE6       30.29S WCI  23
CAHOKIA*       CLOUDY    30  26  85 N5        30.29R WCI  25
$$

ILZ064>066-069>071-074>076-080>082-084>086-088>090-092>094-181400-
SOUTH-CENTRAL ILLINOIS

CITY           SKY/WX    TMP DP  RH WIND       PRES   REMARKS
CARBONDALE     CLOUDY    31  28  89 CALM      30.28R
$$

ILZ067-068-072-073-078-083-087-091-181400-
SOUTHEAST ILLINOIS

CITY           SKY/WX    TMP DP  RH WIND       PRES   REMARKS
LAWRENCEVILLE  CLOUDY    27  22  81 NE6       30.31R WCI  20
$$

ABBREVIATIONS USED IN REMARKS
   TC - TEMPERATURE IN CELSIUS
  WCI - WIND CHILL INDEX
   HX - HEAT INDEX
  VSB - VISIBILITY
$$



USA.gov is the U.S. government's official web portal to all federal, state and local government web resources and services.